Regional Weather Roundup
Issued by NWS

Home | Current Version | Previous Version | Graphics & Text | Print | Product List | Glossary On
Versions: 1 2 3 4 5 6 7 8 9 10 11 12 13 14 15 16 17 18 19 20 21 22 23 24 25 26 27 28
000
ASUS45 KGTF 030210
RWRMT
MONTANA HOURLY WEATHER ROUNDUP
NATIONAL WEATHER SERVICE GREAT FALLS MT
800 PM MDT SAT MAY 02 2015

NOTE: "FAIR" INDICATES FEW OR NO CLOUDS BELOW 12000 FEET WITH NO
SIGNIFICANT WEATHER AND/OR OBSTRUCTIONS TO VISIBILITY.

MTZ001>007-043-030300-
WEST OF THE DIVIDE

CITY           SKY/WX    TMP DP  RH WIND       PRES   REMARKS
KALISPELL      CLEAR     62  19  19 NW9       29.84R
MISSOULA       CLEAR     62  20  19 W7        29.84S
BUTTE          MOCLDY    57  14  18 NW13      29.87R
DEER LODGE       N/A     61  12  15 NW9       29.89R
EUREKA           N/A     61  14  16 NW8       29.87R
LIBBY            N/A     63  21  20 W5        29.88R
$$

MTZ008-052>055-030300-
SOUTHWEST MONTANA

CITY           SKY/WX    TMP DP  RH WIND       PRES   REMARKS
BOZEMAN        CLOUDY    59  31  34 W3        29.82R
DILLON         PTCLDY    63  24  22 NW12      29.81R
$$

MTZ009-010-012-014-046-048-049-054-030300-
EAST SLOPES AND CENTRAL MONTANA

CITY           SKY/WX    TMP DP  RH WIND       PRES   REMARKS
CUT BANK       MOCLDY    45  28  51 N16       29.92R
GREAT FALLS    PTCLDY    55  33  43 NE16      29.84R
MALMSTROM AFB  PTCLDY    55  34  45 NE17      29.85R
HELENA         PTCLDY    65   9  11 NW10      29.81R
$$

MTZ011-013-016-021-045-047-050-051-030300-
NORTH CENTRAL MONTANA

CITY           SKY/WX    TMP DP  RH WIND       PRES   REMARKS
HAVRE          CLEAR     55  29  36 N16       29.86R
LEWISTOWN      MOCLDY    57  38  48 N9        29.82R
CHINOOK          N/A     55  28  35 N12G18    29.87R
FORT BENTON      N/A     55  30  38 N10G20    29.87R
$$

MTZ017>020-022>042-056>058-061-062-030300-
EASTERN PLAINS

CITY           SKY/WX    TMP DP  RH WIND       PRES   REMARKS
BAKER          CLOUDY    67  33  28 N13       29.72R
BILLINGS       CLOUDY    66  28  24 E7        29.77R
GLASGOW        PTCLDY    56  34  43 N20G25    29.80R
JORDAN           N/A     62  37  39 N24G30    29.76R
LIVINGSTON     PTCLDY    62  27  26 SW7       29.80R
MILES CITY     CLOUDY    71  31  22 N15       29.71R
SIDNEY         CLOUDY    66  34  30 NW17      29.71R
WOLF POINT     MOCLDY    62  36  37 N22       29.76R
BIG TIMBER       N/A     61  28  29 CALM      29.81R
FORSYTH          N/A     68  30  24 N6        29.73R
PLENTYWOOD       N/A     55  34  44 NW12G29   29.78R
POPLAR           N/A     61  36  39 N13G22    29.77R
$$

REGIONAL REPORTS...DAKOTAS

CITY           SKY/WX    TMP DP  RH WIND       PRES   REMARKS
WILLISTON      MOCLDY    65  35  33 N17       29.71R
MINOT          PTCLDY    64  33  31 NW10      29.65R
DICKINSON      PTCLDY    67  28  23 N7        29.68R
BEACH          FAIR      57  32  38 NW6       29.73R
CROSBY         FAIR      57  36  44 NW14G20   29.75R
WATFORD CITY   FAIR      63  36  36 N9        29.67R
BISMARCK       MOCLDY    72  31  22 N3        29.64R
GRAND FORKS    MOCLDY    66  47  50 SE12      29.55S
FARGO          CLOUDY    67  48  50 SE21G26   29.58F
BUFFALO SD       N/A     70  29  21 NW3       29.66R
RAPID CITY     MOCLDY    64  32  30 N8        29.73R
$$

REGIONAL REPORTS...WYOMING/IDAHO/WASHINGTON

CITY           SKY/WX    TMP DP  RH WIND       PRES   REMARKS
GILLETTE       PTCLDY    60  31  33 CALM      29.76F
SHERIDAN       MOCLDY    57  38  48 NW7       29.76S
BUFFALO WY     MOCLDY    63  31  30 NW9       29.81R
CODY           CLOUDY    64  25  22 SW21G32   29.82R
YELLOWSTONE LA   N/A     49  27  42 NW3       29.96S
IDAHO FALLS    CLEAR     71  22  15 W17G24    29.78S
SALMON         PTCLDY    64  32  29 N8        29.78R
BOISE          PTCLDY    76  25  15 N15       29.74F
SPOKANE        CLEAR     63  21  20 W6        29.89F
$$

REGIONAL REPORTS...ALBERTA

CITY           SKY/WX    TMP DP  RH WIND       PRES   REMARKS
EDMONTON       MOCLDY    41  36  81 N2        29.90F
CALGARY        MOCLDY    46  19  34 N14       29.92S
LETHBRIDGE     PTCLDY    48  32  53 W7        29.94R
MEDICINE HAT   PTCLDY    52  21  30 W14       29.89R
$$

REGIONAL REPORTS...SASKATCHEWAN

CITY           SKY/WX    TMP DP  RH WIND       PRES   REMARKS
SWIFT CURRENT  PTCLDY    50  23  34 NW16G22   29.82R
REGINA         PTCLDY    50  39  66 W9        29.77S
SASKATOON      PTCLDY    50  32  50 NW17G25   29.78R
$$



USA.gov is the U.S. government's official web portal to all federal, state and local government web resources and services.